Starlink 5620

operational
NORAD ID: 55414 Int'l Des: 2023-014 Owner: SPXS Country: US Constellation: starlink
LEOCIRCULAR

Über Starlink 5620

Beschreibung wird geladen...

Live-Position

3D-Globus wird geladen...

Nächste Überflüge

Höhenverlauf

Altitude vs Time

uPlot chart will show altitude changes over time

Zweizeiliger Elementsatz

1 55414U 23014Z 25340.95479668 .00000236 00000-0 27576-4 0 9999
2 55414 69.9997 318.1799 0002522 258.9566 101.1310 14.98334742157678
Epoch: 6. Dez. 2025 • Age: 15 hours

Aktueller Status

Höhe 585.2 km
Geschwindigkeit 7.57 km/s
Subsatellitenpunkt 69.58°N, 110.82°E
Startdatum 31. Jan. 2023
Alter 2.8 years
Typ internet

Technische Details

Klassifizierung Payload
Masse 305.00 kg
Trockenmasse 290.00 kg
Gesamtmasse 305.00 kg
Länge 0.20 m
Durchmesser 2.80 m
Spannweite 9.00 m
Form Box + pan
Hersteller SPXS
Bus-Typ Starlink
Phasenstatus In Orbit
Besitzer/Staat SPXS/US

Große Konstellationen

Loading constellations...